TELSTAR 12V

Last updated on Fri Sep 19 2025 00:02:49 GMT+0000 (Coordinated Universal Time)

1 41036U 15068A 25261.20669610 -.00000139 00000+0 00000+0 0 9992 2 41036 0.0201 245.0016 0002355 301.4898 230.3002 1.00271950 35895
UTC large
Height (km)
Speed (km/s)
/
Latitude / Longitude
Inclination (degrees)
Orbital Period (minutes)
Azimuth
Elevation
Range (km)
Doppler Factor

Next 0 passes for location: London (51.5072 / 0.1276)

Sorry there are no passes over London.